Weather History for KO86 - May, 2013

Change the Weather History Date:

Monday, May 6, 2013

  Actual Average (KMHS) Record (KMHS)
Temperature  
Mean Temperature 59 °F 52 °F  
Max Temperature 68 °F 66 °F 88 °F (1987)
Min Temperature 50 °F 37 °F 24 °F (1933)
Degree Days  
Heating Degree Days 6 13  
Month to date heating degree days 82  
Since 1 July heating degree days 5297  
Cooling Degree Days 0 0  
Month to date cooling degree days 0  
Year to date cooling degree days 0  
Growing Degree Days 9 (Base 50)    
Moisture  
Dew Point 48 °F    
Average Humidity 75    
Maximum Humidity 94    
Minimum Humidity 49    
Precipitation  
Precipitation 0.04 in 0.07 in 0.60 in (1927)
Month to date precipitation 0.43  
Year to date precipitation 23.61  
Sea Level Pressure  
Sea Level Pressure 29.93 in    
Wind  
Wind Speed 3 mph (SSE)    
Max Wind Speed 15 mph    
Max Gust Speed 21 mph    
Visibility 10 miles    
Events      
T = Trace of Precipitation, MM = Missing Value Source: NWS Daily Summary

Daily Weather History Graph

Daily Weather History Graph

Search for Another Location

Airport or City:

Trip Planner

Search our weather history database for the weather conditions in past years. The results will help you decide how hot, cold, wet, or windy it might be!

Date:

Astronomy

May. 06, 2013 Rise Set
Actual Time 6:02 AM PDT 8:13 PM PDT
Civil Twilight 5:31 AM PDT 8:43 PM PDT
Nautical Twilight 4:54 AM PDT 9:21 PM PDT
Astronomical Twilight 4:13 AM PDT 10:02 PM PDT
Moon 4:08 AM PDT (5/6) 5:17 PM PDT (5/6)
Length of Visible Light 15h 11m
Length of Day
14h 10m
Waning Crescent, 10% of the Moon is Illuminated
May 6
Waning Crescent
May 9
New
May 17
First Quarter
May 24
Full
May 31
Last Quarter

Hourly Weather History & Observations

Time (PDT) Temp. Dew Point Humidity Pressure Visibility Wind Dir Wind Speed Gust Speed Precip Events Conditions
12:10 AM 53.6 °F 41.0 °F 62% 29.89 in 10.0 mi West 3.5 mph - N/A   Clear
12:30 AM 51.8 °F 41.0 °F 67% 29.90 in 10.0 mi Calm Calm - N/A   Clear
12:50 AM 53.6 °F 41.0 °F 62% 29.91 in 10.0 mi WNW 4.6 mph - N/A   Clear
1:10 AM 53.6 °F 41.0 °F 62% 29.92 in 10.0 mi Calm Calm - N/A   Clear
1:30 AM 51.8 °F 41.0 °F 67% 29.92 in 10.0 mi West 3.5 mph - N/A   Clear
1:50 AM 51.8 °F 41.0 °F 67% 29.92 in 10.0 mi West 3.5 mph - N/A   Partly Cloudy
2:10 AM 51.8 °F 41.0 °F 67% 29.92 in 10.0 mi Calm Calm - N/A   Scattered Clouds
2:30 AM 51.8 °F 41.0 °F 67% 29.92 in 10.0 mi Calm Calm - N/A   Overcast
2:50 AM 51.8 °F 42.8 °F 71% 29.92 in 10.0 mi Calm Calm - N/A   Overcast
3:10 AM 50.0 °F 42.8 °F 76% 29.92 in 10.0 mi Calm Calm - N/A   Overcast
3:50 AM 51.8 °F 44.6 °F 76% 29.92 in 10.0 mi Calm Calm - N/A   Mostly Cloudy
4:10 AM 50.0 °F 46.4 °F 87% 29.92 in 10.0 mi Calm Calm - N/A   Overcast
4:30 AM 50.0 °F 46.4 °F 87% 29.91 in 10.0 mi Calm Calm - N/A   Overcast
4:50 AM 50.0 °F 46.4 °F 87% 29.91 in 10.0 mi Calm Calm - N/A   Overcast
5:10 AM 50.0 °F 46.4 °F 87% 29.91 in 10.0 mi North 3.5 mph - N/A   Overcast
5:30 AM 50.0 °F 46.4 °F 87% 29.91 in 10.0 mi SSW 3.5 mph - N/A   Mostly Cloudy
5:50 AM 50.0 °F 46.4 °F 87% 29.90 in 10.0 mi Calm Calm - N/A   Overcast
6:10 AM 50.0 °F 46.4 °F 87% 29.90 in 10.0 mi Calm Calm - N/A   Overcast
6:30 AM 50.0 °F 48.2 °F 94% 29.91 in 10.0 mi Calm Calm - N/A   Mostly Cloudy
6:50 AM 50.0 °F 48.2 °F 94% 29.91 in 10.0 mi Calm Calm - N/A   Mostly Cloudy
7:10 AM 50.0 °F 48.2 °F 94% 29.91 in 10.0 mi Calm Calm - N/A   Overcast
7:30 AM 51.8 °F 48.2 °F 88% 29.92 in 10.0 mi Calm Calm - N/A   Overcast
7:50 AM 51.8 °F 48.2 °F 88% 29.92 in 10.0 mi Calm Calm - N/A   Overcast
8:10 AM 53.6 °F 48.2 °F 82% 29.92 in 10.0 mi Calm Calm - N/A   Overcast
8:30 AM 53.6 °F 48.2 °F 82% 29.93 in 10.0 mi Calm Calm - N/A   Overcast
8:50 AM 55.4 °F 48.2 °F 77% 29.93 in 10.0 mi ENE 3.5 mph - N/A   Overcast
9:10 AM 55.4 °F 48.2 °F 77% 29.93 in 10.0 mi Calm Calm - N/A   Mostly Cloudy
9:30 AM 57.2 °F 48.2 °F 72% 29.93 in 10.0 mi SE 3.5 mph - N/A   Partly Cloudy
9:50 AM 59.0 °F 46.4 °F 63% 29.92 in 10.0 mi SE 4.6 mph - N/A   Clear
10:10 AM 62.6 °F 46.4 °F 55% 29.92 in 10.0 mi SSE 8.1 mph - N/A   Clear
10:30 AM 64.4 °F 46.4 °F 52% 29.92 in 10.0 mi SSE 8.1 mph - N/A   Partly Cloudy
10:50 AM 64.4 °F 48.2 °F 56% 29.92 in 10.0 mi SSE 5.8 mph - N/A   Clear
11:10 AM 66.2 °F 48.2 °F 52% 29.92 in 10.0 mi SSE 9.2 mph - N/A   Scattered Clouds
11:30 AM 66.2 °F 46.4 °F 49% 29.92 in 10.0 mi SSE 10.4 mph - N/A   Mostly Cloudy
11:50 AM 66.2 °F 48.2 °F 52% 29.92 in 10.0 mi SSE 10.4 mph - N/A   Partly Cloudy
12:10 PM 68.0 °F 48.2 °F 49% 29.91 in 10.0 mi SSE 10.4 mph - N/A   Clear
12:30 PM 68.0 °F 48.2 °F 49% 29.91 in 10.0 mi SSE 10.4 mph - N/A   Clear
12:50 PM 66.2 °F 48.2 °F 52% 29.90 in 10.0 mi South 10.4 mph - N/A   Clear
1:10 PM 66.2 °F 48.2 °F 52% 29.90 in 10.0 mi South 12.7 mph - N/A   Clear
1:30 PM 66.2 °F 46.4 °F 49% 29.90 in 10.0 mi South 12.7 mph - N/A   Clear
1:50 PM 68.0 °F 48.2 °F 49% 29.90 in 10.0 mi South 11.5 mph - N/A   Clear
2:10 PM 66.2 °F 48.2 °F 52% 29.91 in 10.0 mi South 9.2 mph - N/A   Mostly Cloudy
2:30 PM 66.2 °F 50.0 °F 56% 29.91 in 10.0 mi SE 11.5 mph 20.7 mph N/A   Mostly Cloudy
2:50 PM 64.4 °F 50.0 °F 59% 29.93 in 10.0 mi SSE 15.0 mph 19.6 mph N/A   Scattered Clouds
3:10 PM 62.6 °F 50.0 °F 63% 29.94 in 10.0 mi SE 9.2 mph 17.3 mph N/A   Overcast
3:30 PM 59.0 °F 50.0 °F 72% 29.94 in 10.0 mi SSE 9.2 mph 16.1 mph N/A   Overcast
3:50 PM 59.0 °F 50.0 °F 72% 29.94 in 10.0 mi ESE 4.6 mph - N/A   Overcast
4:10 PM 59.0 °F 48.2 °F 67% 29.94 in 10.0 mi SE 3.5 mph - N/A   Overcast
4:30 PM 57.2 °F 50.0 °F 77% 29.94 in 9.0 mi Calm Calm - N/A   Overcast
4:50 PM 57.2 °F 50.0 °F 77% 29.94 in 10.0 mi Calm Calm - N/A   Mostly Cloudy
5:10 PM 57.2 °F 50.0 °F 77% 29.95 in 10.0 mi ESE 3.5 mph - N/A   Mostly Cloudy
5:30 PM 55.4 °F 53.6 °F 94% 29.95 in 5.0 mi Calm Calm - 0.01 in   Overcast
5:50 PM 55.4 °F 53.6 °F 94% 29.95 in 5.0 mi Calm Calm - 0.04 in   Overcast
6:10 PM 55.4 °F 53.6 °F 94% 29.95 in 5.0 mi Calm Calm - N/A   Overcast
6:30 PM 55.4 °F 51.8 °F 88% 29.96 in 7.0 mi Calm Calm - N/A   Overcast
6:50 PM 55.4 °F 51.8 °F 88% 29.95 in 9.0 mi SSE 9.2 mph - N/A   Overcast
7:10 PM 55.4 °F 50.0 °F 82% 29.95 in 10.0 mi South 5.8 mph - N/A   Overcast
7:30 PM 53.6 °F 50.0 °F 88% 29.95 in 10.0 mi South 6.9 mph - N/A   Overcast
7:50 PM 53.6 °F 50.0 °F 88% 29.95 in 10.0 mi Calm Calm - N/A   Overcast
8:10 PM 53.6 °F 51.8 °F 94% 29.95 in 10.0 mi Calm Calm - N/A   Overcast
8:30 PM 53.6 °F 51.8 °F 94% 29.96 in 10.0 mi Calm Calm - N/A   Overcast
9:10 PM 53.6 °F 50.0 °F 88% 29.97 in 10.0 mi Calm Calm - N/A   Overcast
9:30 PM 53.6 °F 51.8 °F 94% 29.98 in 10.0 mi Calm Calm - N/A   Overcast
9:50 PM 53.6 °F 50.0 °F 88% 29.98 in 10.0 mi SE 3.5 mph - N/A   Mostly Cloudy
10:10 PM 53.6 °F 50.0 °F 88% 29.99 in 10.0 mi Calm Calm - N/A   Overcast
10:30 PM 53.6 °F 50.0 °F 88% 30.00 in 10.0 mi Calm Calm - N/A   Overcast
11:10 PM 53.6 °F 50.0 °F 88% 29.99 in 10.0 mi Calm Calm - N/A   Overcast
11:30 PM 53.6 °F 50.0 °F 88% 30.00 in 10.0 mi Calm Calm - N/A   Overcast
11:50 PM 53.6 °F 50.0 °F 88% 30.00 in 10.0 mi Calm Calm - N/A   Overcast